This is the latest recevied weather packets stored in our database for station/object WA6OOO. If no packets are shown the sender has not sent any weather packets the latest 10 day(s).
| Time | Temp. | Humidity | Pressure | Rain* | Wind** | Luminosity | Snow |
|---|---|---|---|---|---|---|---|
| 1777686218 | 16.67° C | 81% | 1015.3 hPa | 0 mm | - | 54 W/m² | - |
| 1777685914 | 16.67° C | 81% | 1015.4 hPa | 0 mm | - | 73 W/m² | - |
| 1777685610 | 16.67° C | 80% | 1015.2 hPa | 0 mm | - | 82 W/m² | - |
| 1777685306 | 17.22° C | 79% | 1015 hPa | 0 mm | - | 91 W/m² | - |
| 1777685005 | 17.78° C | 77% | 1015.1 hPa | 0 mm | - | 100 W/m² | - |
| 1777684701 | 17.78° C | 77% | 1015.2 hPa | 0 mm | - | 109 W/m² | - |
| 1777684398 | 17.78° C | 77% | 1015.3 hPa | 0 mm | - | 120 W/m² | - |
| 1777684095 | 17.78° C | 77% | 1015.2 hPa | 0 mm | - | 130 W/m² | - |
| 1777683791 | 17.78° C | 76% | 1015.2 hPa | 0 mm | - | 144 W/m² | - |
| 1777683488 | 17.78° C | 76% | 1015.1 hPa | 0 mm | - | 155 W/m² | - |
| 1777683186 | 17.78° C | 75% | 1015 hPa | 0 mm | - | 167 W/m² | - |
| 1777682883 | 18.33° C | 75% | 1015.1 hPa | 0 mm | - | 181 W/m² | - |
| 1777682579 | 18.33° C | 73% | 1015.2 hPa | 0 mm | - | 190 W/m² | - |
| 1777682277 | 18.33° C | 73% | 1015.2 hPa | 0 mm | - | 217 W/m² | - |
| 1777681974 | 18.89° C | 72% | 1015.3 hPa | 0 mm | - | 222 W/m² | - |
| 1777681670 | 18.89° C | 72% | 1015.3 hPa | 0 mm | - | 247 W/m² | - |
| 1777681368 | 18.89° C | 72% | 1015.2 hPa | 0 mm | - | 265 W/m² | - |
| 1777681064 | 19.44° C | 70% | 1015.2 hPa | 0 mm | - | 270 W/m² | - |
| 1777680763 | 19.44° C | 70% | 1015.3 hPa | 0 mm | - | 301 W/m² | - |
| 1777680455 | 18.89° C | 71% | 1015.3 hPa | 0 mm | - | 317 W/m² | - |
| 1777680152 | 19.44° C | 70% | 1015.5 hPa | 0 mm | - | 331 W/m² | - |
| 1777679847 | 19.44° C | 71% | 1015.6 hPa | 0 mm | - | 346 W/m² | - |
| 1777679543 | 19.44° C | 70% | 1015.5 hPa | 0 mm | - | 361 W/m² | - |
| 1777679239 | 19.44° C | 72% | 1015.6 hPa | 0 mm | - | 374 W/m² | - |
| 1777678937 | 18.89° C | 72% | 1015.6 hPa | 0 mm | - | 387 W/m² | - |
* Rain latest hour (hover to see other rain measurements)
** Current wind speed in m/s (hover to see current wind gust speed)